| time (UTC) | temp F | wind direction | speed MPH | gust MPH | rain 1hr in | rain 24hr in | rain mn in | humidity % | barometer mb |
| 20260507101403 | 59 | 320 | 0.0 | 1.0 | 0.00 | 0.00 | 0.00 | 43 | 1014.3 |
| 20260507100903 | 59 | 320 | 0.0 | 2.0 | 0.00 | 0.00 | 0.00 | 42 | 1014.3 |
| 20260507100403 | 59 | 321 | 0.0 | 2.0 | 0.00 | 0.00 | 0.00 | 41 | 1014.4 |
| 20260507095903 | 59 | 32 | 0.0 | 1.0 | 0.00 | 0.00 | 0.00 | 42 | 1014.3 |
| 20260507094903 | 59 | 35 | 0.0 | 1.0 | 0.00 | 0.00 | 0.00 | 42 | 1014.4 |
| 20260507094403 | 59 | 35 | 0.0 | 1.0 | 0.00 | 0.00 | 0.00 | 42 | 1014.5 |
| 20260507093903 | 60 | 35 | 0.0 | 1.0 | 0.00 | 0.00 | 0.00 | 41 | 1014.5 |
| 20260507093403 | 60 | 35 | 0.0 | 1.0 | 0.00 | 0.00 | 0.00 | 40 | 1014.4 |
| 20260507092903 | 60 | 30 | 0.0 | 1.0 | 0.00 | 0.00 | 0.00 | 40 | 1014.5 |
| 20260507090903 | 60 | 30 | 0.0 | 1.0 | 0.00 | 0.00 | 0.00 | 38 | 1014.5 |
| 20260507090403 | 60 | 30 | 0.0 | 1.0 | 0.00 | 0.00 | 0.00 | 38 | 1014.5 |
| 20260507085903 | 60 | 30 | 0.0 | 1.0 | 0.00 | 0.00 | 0.00 | 38 | 1014.5 |
| 20260507085403 | 60 | 30 | 0.0 | 1.0 | 0.00 | 0.00 | 0.00 | 38 | 1014.5 |
| 20260507084902 | 60 | 30 | 0.0 | 1.0 | 0.00 | 0.00 | 0.00 | 38 | 1014.5 |
| 20260507084403 | 60 | 30 | 0.0 | 0.0 | 0.00 | 0.00 | 0.00 | 40 | 1014.6 |
| 20260507083902 | 60 | 30 | 0.0 | 0.0 | 0.00 | 0.00 | 0.00 | 42 | 1014.6 |
| 20260507083404 | 60 | 30 | 0.0 | 0.0 | 0.00 | 0.00 | 0.00 | 42 | 1014.6 |
| 20260507082903 | 59 | 30 | 0.0 | 0.0 | 0.00 | 0.00 | 0.00 | 42 | 1014.7 |
| 20260507081903 | 60 | 30 | 0.0 | 0.0 | 0.00 | 0.00 | 0.00 | 42 | 1014.8 |
| 20260507081403 | 60 | 30 | 0.0 | 0.0 | 0.00 | 0.00 | 0.00 | 41 | 1014.8 |
| 20260507080903 | 60 | 30 | 0.0 | 1.0 | 0.00 | 0.00 | 0.00 | 41 | 1014.8 |
| 20260507075903 | 60 | 30 | 0.0 | 1.0 | 0.00 | 0.00 | 0.00 | 41 | 1014.7 |
| 20260507075403 | 60 | 30 | 0.0 | 0.0 | 0.00 | 0.00 | 0.00 | 41 | 1014.7 |
| 20260507074903 | 61 | 30 | 0.0 | 0.0 | 0.00 | 0.00 | 0.00 | 41 | 1014.7 |
| 20260507074403 | 61 | 30 | 0.0 | 0.0 | 0.00 | 0.00 | 0.00 | 40 | 1014.7 |
| 20260507073903 | 61 | 30 | 0.0 | 0.0 | 0.00 | 0.00 | 0.00 | 40 | 1014.9 |
| 20260507073403 | 61 | 30 | 0.0 | 1.0 | 0.00 | 0.00 | 0.00 | 40 | 1014.8 |
| 20260507072904 | 61 | 30 | 0.0 | 1.0 | 0.00 | 0.00 | 0.00 | 41 | 1014.9 |
| 20260507072403 | 61 | 30 | 0.0 | 1.0 | 0.00 | 0.00 | 0.00 | 41 | 1014.9 |
| 20260507071903 | 61 | 30 | 0.0 | 1.0 | 0.00 | 0.00 | 0.00 | 41 | 1014.8 |
| 20260507071403 | 61 | 30 | 0.0 | 0.0 | 0.00 | 0.00 | 0.00 | 42 | 1014.9 |
| 20260507070403 | 61 | 30 | 0.0 | 0.0 | 0.00 | 0.00 | 0.00 | 42 | 1014.9 |
| 20260507065903 | 62 | 30 | 0.0 | 2.0 | 0.00 | 0.00 | 0.00 | 39 | 1014.8 |
| 20260507065402 | 62 | 30 | 0.0 | 2.0 | 0.00 | 0.00 | 0.00 | 38 | 1014.9 |
| 20260507064903 | 62 | 30 | 0.0 | 2.0 | 0.00 | 0.00 | 0.00 | 38 | 1014.8 |
| 20260507064403 | 63 | 30 | 1.0 | 2.0 | 0.00 | 0.00 | 0.00 | 37 | 1014.9 |
| 20260507063903 | 63 | 30 | 1.0 | 2.0 | 0.00 | 0.00 | 0.00 | 36 | 1014.8 |
| 20260507062904 | 63 | 30 | 0.0 | 2.0 | 0.00 | 0.00 | 0.00 | 35 | 1014.7 |
| 20260507062403 | 64 | 45 | 0.0 | 2.0 | 0.00 | 0.00 | 0.00 | 34 | 1014.7 |
| 20260507061902 | 64 | 45 | 0.0 | 2.0 | 0.00 | 0.00 | 0.00 | 34 | 1014.7 |
| 20260507061404 | 64 | 36 | 0.0 | 2.0 | 0.00 | 0.00 | 0.00 | 33 | 1014.8 |
| 20260507060903 | 64 | 37 | 0.0 | 2.0 | 0.00 | 0.00 | 0.00 | 33 | 1014.7 |
| 20260507060404 | 64 | 37 | 0.0 | 2.0 | 0.00 | 0.00 | 0.00 | 33 | 1014.6 |
| 20260507055903 | 65 | 37 | 0.0 | 2.0 | 0.00 | 0.00 | 0.00 | 32 | 1014.7 |
| 20260507054903 | 65 | 41 | 1.0 | 2.0 | 0.00 | 0.00 | 0.00 | 32 | 1014.8 |
| 20260507054402 | 65 | 42 | 0.0 | 1.0 | 0.00 | 0.00 | 0.00 | 32 | 1014.8 |
| 20260507053403 | 65 | 41 | 0.0 | 2.0 | 0.00 | 0.00 | 0.00 | 31 | 1014.8 |
| 20260507052903 | 66 | 41 | 0.0 | 2.0 | 0.00 | 0.00 | 0.00 | 31 | 1014.7 |
| 20260507050903 | 65 | 59 | 0.0 | 1.0 | 0.00 | 0.00 | 0.00 | 32 | 1014.6 |
| 20260507050403 | 65 | 59 | 0.0 | 1.0 | 0.00 | 0.00 | 0.00 | 32 | 1014.6 |
| 20260507045403 | 66 | 101 | 0.0 | 0.0 | 0.00 | 0.00 | 0.00 | 32 | 1014.5 |
| 20260507044904 | 66 | 101 | 0.0 | 0.0 | 0.00 | 0.00 | 0.00 | 32 | 1014.5 |
| 20260507044403 | 66 | 106 | 0.0 | 1.0 | 0.00 | 0.00 | 0.00 | 31 | 1014.5 |
| 20260507043903 | 66 | 106 | 0.0 | 1.0 | 0.00 | 0.00 | 0.00 | 30 | 1014.5 |
| 20260507043403 | 67 | 126 | 0.0 | 0.0 | 0.00 | 0.00 | 0.00 | 29 | 1014.5 |
| 20260507042903 | 67 | 126 | 0.0 | 1.0 | 0.00 | 0.00 | 0.00 | 29 | 1014.4 |
| 20260507042403 | 67 | 126 | 0.0 | 1.0 | 0.00 | 0.00 | 0.00 | 28 | 1014.5 |
| 20260507041903 | 68 | 126 | 0.0 | 1.0 | 0.00 | 0.00 | 0.00 | 27 | 1014.4 |
| 20260507041403 | 68 | 126 | 0.0 | 1.0 | 0.00 | 0.00 | 0.00 | 27 | 1014.3 |
| 20260507040403 | 68 | 126 | 0.0 | 2.0 | 0.00 | 0.00 | 0.00 | 27 | 1014.3 |
| 20260507035903 | 68 | 126 | 1.0 | 2.0 | 0.00 | 0.00 | 0.00 | 28 | 1014.2 |
| 20260507035403 | 69 | 142 | 1.0 | 2.0 | 0.00 | 0.00 | 0.00 | 26 | 1014.2 |
| 20260507034903 | 70 | 155 | 0.0 | 1.0 | 0.00 | 0.00 | 0.00 | 25 | 1014.1 |
| 20260507033903 | 71 | 139 | 0.0 | 1.0 | 0.00 | 0.00 | 0.00 | 24 | 1013.9 |
| 20260507033403 | 71 | 137 | 0.0 | 2.0 | 0.00 | 0.00 | 0.00 | 23 | 1013.8 |
| 20260507032903 | 71 | 191 | 1.0 | 2.0 | 0.00 | 0.00 | 0.00 | 23 | 1013.8 |
| 20260507031402 | 72 | 274 | 0.0 | 1.0 | 0.00 | 0.00 | 0.00 | 23 | 1013.7 |
| 20260507030904 | 72 | 274 | 0.0 | 1.0 | 0.00 | 0.00 | 0.00 | 22 | 1013.6 |
| 20260507030404 | 72 | 293 | 0.0 | 1.0 | 0.00 | 0.00 | 0.00 | 22 | 1013.5 |
| 20260507025903 | 73 | 287 | 0.0 | 1.0 | 0.00 | 0.00 | 0.00 | 21 | 1013.4 |
| 20260507025403 | 73 | 287 | 0.0 | 2.0 | 0.00 | 0.00 | 0.00 | 21 | 1013.4 |
| 20260507024403 | 74 | 305 | 0.0 | 3.0 | 0.00 | 0.00 | 0.00 | 20 | 1013.2 |
| 20260507023903 | 74 | 267 | 1.0 | 3.0 | 0.00 | 0.00 | 0.00 | 20 | 1013.2 |
| 20260507023403 | 74 | 288 | 1.0 | 3.0 | 0.00 | 0.00 | 0.00 | 19 | 1013.3 |
| 20260507022903 | 75 | 193 | 1.0 | 3.0 | 0.00 | 0.00 | 0.00 | 19 | 1013.2 |
| 20260507022403 | 75 | 351 | 1.0 | 3.0 | 0.00 | 0.00 | 0.00 | 19 | 1013.2 |
| 20260507021903 | 75 | 260 | 1.0 | 5.0 | 0.00 | 0.00 | 0.00 | 18 | 1013.1 |
| 20260507021404 | 76 | 271 | 1.0 | 5.0 | 0.00 | 0.00 | 0.00 | 18 | 1013.1 |
| 20260507020903 | 76 | 283 | 1.0 | 5.0 | 0.00 | 0.00 | 0.00 | 18 | 1013.1 |
| 20260507020403 | 76 | 236 | 1.0 | 5.0 | 0.00 | 0.00 | 0.00 | 18 | 1013.1 |
| 20260507015904 | 76 | 261 | 1.0 | 5.0 | 0.00 | 0.00 | 0.00 | 18 | 1013.0 |
| 20260507015403 | 77 | 197 | 2.0 | 5.0 | 0.00 | 0.00 | 0.00 | 18 | 1013.0 |
| 20260507013403 | 77 | 166 | 1.0 | 5.0 | 0.00 | 0.00 | 0.00 | 17 | 1013.0 |
| 20260507012903 | 77 | 231 | 2.0 | 5.0 | 0.00 | 0.00 | 0.00 | 17 | 1012.9 |
| 20260507011903 | 78 | 174 | 1.0 | 7.0 | 0.00 | 0.00 | 0.00 | 17 | 1012.9 |
| 20260507011402 | 78 | 223 | 3.0 | 8.0 | 0.00 | 0.00 | 0.00 | 17 | 1013.0 |
| 20260507010903 | 78 | 274 | 1.0 | 8.0 | 0.00 | 0.00 | 0.00 | 18 | 1012.9 |
| 20260507010403 | 78 | 240 | 3.0 | 7.0 | 0.00 | 0.00 | 0.00 | 18 | 1012.9 |
| 20260507005403 | 79 | 215 | 2.0 | 10.0 | 0.00 | 0.00 | 0.00 | 17 | 1013.0 |
| 20260507004903 | 79 | 220 | 2.0 | 10.0 | 0.00 | 0.00 | 0.00 | 17 | 1012.9 |
| 20260507003903 | 79 | 249 | 3.0 | 8.0 | 0.00 | 0.00 | 0.00 | 17 | 1012.9 |
| 20260507003404 | 79 | 250 | 2.0 | 7.0 | 0.00 | 0.00 | 0.00 | 18 | 1012.8 |
| 20260507002903 | 79 | 230 | 2.0 | 8.0 | 0.00 | 0.00 | 0.00 | 18 | 1012.8 |
| 20260507002403 | 80 | 189 | 3.0 | 8.0 | 0.00 | 0.00 | 0.00 | 17 | 1012.8 |
| 20260507001903 | 80 | 144 | 2.0 | 9.0 | 0.00 | 0.00 | 0.00 | 18 | 1012.9 |
| 20260507001403 | 80 | 170 | 2.0 | 9.0 | 0.00 | 0.00 | 0.00 | 18 | 1012.8 |
| 20260507000903 | 80 | 298 | 2.0 | 8.0 | 0.00 | 0.00 | 0.00 | 18 | 1012.9 |
| 20260507000405 | 81 | 225 | 3.0 | 5.0 | 0.00 | 0.00 | 0.00 | 18 | 1012.9 |
| 20260506235903 | 80 | 237 | 3.0 | 9.0 | 0.00 | 0.00 | 0.00 | 18 | 1012.9 |
| 20260506235403 | 80 | 262 | 3.0 | 9.0 | 0.00 | 0.00 | 0.00 | 18 | 1012.8 |
| 20260506234903 | 80 | 239 | 2.0 | 7.0 | 0.00 | 0.00 | 0.00 | 18 | 1012.9 |
| 20260506234403 | 81 | 338 | 2.0 | 7.0 | 0.00 | 0.00 | 0.00 | 18 | 1012.8 |
| 20260506233904 | 81 | 324 | 3.0 | 7.0 | 0.00 | 0.00 | 0.00 | 18 | 1012.8 |
| 20260506232903 | 81 | 210 | 2.0 | 7.0 | 0.00 | 0.00 | 0.00 | 18 | 1012.8 |
| 20260506232403 | 81 | 215 | 3.0 | 9.0 | 0.00 | 0.00 | 0.00 | 18 | 1012.9 |
| 20260506230903 | 82 | 198 | 2.0 | 7.0 | 0.00 | 0.00 | 0.00 | 18 | 1013.0 |
| 20260506230403 | 82 | 240 | 2.0 | 7.0 | 0.00 | 0.00 | 0.00 | 18 | 1013.1 |
| 20260506225403 | 82 | 220 | 3.0 | 8.0 | 0.00 | 0.00 | 0.00 | 18 | 1013.2 |
| 20260506224903 | 81 | 266 | 1.0 | 8.0 | 0.00 | 0.00 | 0.00 | 19 | 1013.2 |
| 20260506224403 | 82 | 200 | 4.0 | 8.0 | 0.00 | 0.00 | 0.00 | 19 | 1013.2 |
| 20260506223404 | 82 | 228 | 3.0 | 12.0 | 0.00 | 0.00 | 0.00 | 18 | 1013.3 |
| 20260506222903 | 82 | 236 | 3.0 | 8.0 | 0.00 | 0.00 | 0.00 | 19 | 1013.4 |
| 20260506222403 | 82 | 239 | 2.0 | 10.0 | 0.00 | 0.00 | 0.00 | 18 | 1013.3 |
| 20260506221903 | 82 | 267 | 2.0 | 10.0 | 0.00 | 0.00 | 0.00 | 19 | 1013.5 |
| 20260506220903 | 82 | 227 | 4.0 | 12.0 | 0.00 | 0.00 | 0.00 | 19 | 1013.6 |
| 20260506220403 | 82 | 230 | 3.0 | 12.0 | 0.00 | 0.00 | 0.00 | 19 | 1013.6 |
| 20260506215904 | 82 | 195 | 3.0 | 9.0 | 0.00 | 0.00 | 0.00 | 19 | 1013.6 |
| 20260506215404 | 82 | 218 | 2.0 | 10.0 | 0.00 | 0.00 | 0.00 | 19 | 1013.6 |
| 20260506214403 | 81 | 165 | 3.0 | 8.0 | 0.00 | 0.00 | 0.00 | 20 | 1013.8 |
| 20260506213903 | 81 | 232 | 3.0 | 8.0 | 0.00 | 0.00 | 0.00 | 19 | 1013.8 |
| 20260506213403 | 82 | 226 | 3.0 | 8.0 | 0.00 | 0.00 | 0.00 | 20 | 1013.9 |
| 20260506212903 | 82 | 283 | 2.0 | 12.0 | 0.00 | 0.00 | 0.00 | 21 | 1014.0 |
| 20260506212404 | 82 | 352 | 5.0 | 12.0 | 0.00 | 0.00 | 0.00 | 20 | 1014.0 |
| 20260506210903 | 82 | 356 | 2.0 | 10.0 | 0.00 | 0.00 | 0.00 | 21 | 1014.2 |
| 20260506210403 | 81 | 175 | 1.0 | 12.0 | 0.00 | 0.00 | 0.00 | 22 | 1014.3 |
| 20260506205903 | 81 | 20 | 3.0 | 12.0 | 0.00 | 0.00 | 0.00 | 21 | 1014.3 |
| 20260506204903 | 80 | 202 | 3.0 | 8.0 | 0.00 | 0.00 | 0.00 | 23 | 1014.3 |
| 20260506204403 | 80 | 213 | 2.0 | 9.0 | 0.00 | 0.00 | 0.00 | 23 | 1014.4 |
| 20260506203903 | 80 | 199 | 2.0 | 9.0 | 0.00 | 0.00 | 0.00 | 24 | 1014.5 |
| 20260506203403 | 80 | 274 | 3.0 | 8.0 | 0.00 | 0.00 | 0.00 | 22 | 1014.5 |
| 20260506202903 | 81 | 211 | 3.0 | 8.0 | 0.00 | 0.00 | 0.00 | 22 | 1014.6 |
| 20260506202404 | 80 | 227 | 5.0 | 8.0 | 0.00 | 0.00 | 0.00 | 23 | 1014.6 |
| 20260506201903 | 80 | 280 | 2.0 | 8.0 | 0.00 | 0.00 | 0.00 | 24 | 1014.6 |
| 20260506201403 | 79 | 226 | 3.0 | 9.0 | 0.00 | 0.00 | 0.00 | 24 | 1014.7 |
| 20260506200903 | 80 | 232 | 5.0 | 10.0 | 0.00 | 0.00 | 0.00 | 23 | 1014.7 |
| 20260506200403 | 80 | 213 | 3.0 | 10.0 | 0.00 | 0.00 | 0.00 | 24 | 1014.8 |
| 20260506195903 | 78 | 190 | 2.0 | 10.0 | 0.00 | 0.00 | 0.00 | 24 | 1014.9 |
| 20260506195403 | 78 | 210 | 2.0 | 10.0 | 0.00 | 0.00 | 0.00 | 25 | 1014.8 |
| 20260506194903 | 79 | 233 | 2.0 | 6.0 | 0.00 | 0.00 | 0.00 | 25 | 1014.9 |
| 20260506194404 | 78 | 255 | 1.0 | 6.0 | 0.00 | 0.00 | 0.00 | 24 | 1015.0 |
| 20260506193903 | 80 | 46 | 2.0 | 8.0 | 0.00 | 0.00 | 0.00 | 25 | 1015.1 |
| 20260506193403 | 79 | 306 | 3.0 | 8.0 | 0.00 | 0.00 | 0.00 | 24 | 1015.1 |
| 20260506192904 | 77 | 211 | 3.0 | 9.0 | 0.00 | 0.00 | 0.00 | 25 | 1015.1 |
| 20260506192404 | 77 | 321 | 3.0 | 10.0 | 0.00 | 0.00 | 0.00 | 25 | 1015.3 |
| 20260506191403 | 78 | 21 | 2.0 | 5.0 | 0.00 | 0.00 | 0.00 | 26 | 1015.4 |
| 20260506190903 | 77 | 199 | 1.0 | 6.0 | 0.00 | 0.00 | 0.00 | 26 | 1015.4 |
| 20260506185403 | 76 | 207 | 3.0 | 8.0 | 0.00 | 0.00 | 0.00 | 26 | 1015.5 |
| 20260506184903 | 76 | 229 | 3.0 | 7.0 | 0.00 | 0.00 | 0.00 | 28 | 1015.7 |
| 20260506184403 | 74 | 245 | 1.0 | 5.0 | 0.00 | 0.00 | 0.00 | 29 | 1015.7 |
| 20260506183904 | 75 | 144 | 2.0 | 10.0 | 0.00 | 0.00 | 0.00 | 28 | 1015.8 |
| 20260506183403 | 76 | 218 | 4.0 | 10.0 | 0.00 | 0.00 | 0.00 | 27 | 1015.8 |
| 20260506182903 | 76 | 246 | 2.0 | 7.0 | 0.00 | 0.00 | 0.00 | 30 | 1015.9 |
| 20260506181903 | 75 | 40 | 2.0 | 5.0 | 0.00 | 0.00 | 0.00 | 29 | 1016.1 |
| 20260506181404 | 74 | 231 | 3.0 | 6.0 | 0.00 | 0.00 | 0.00 | 30 | 1016.1 |
| 20260506180904 | 75 | 208 | 3.0 | 6.0 | 0.00 | 0.00 | 0.00 | 31 | 1016.2 |
| 20260506180403 | 73 | 277 | 1.0 | 7.0 | 0.00 | 0.00 | 0.00 | 31 | 1016.3 |
| 20260506175903 | 75 | 305 | 2.0 | 7.0 | 0.00 | 0.00 | 0.00 | 30 | 1016.3 |
| 20260506175403 | 73 | 296 | 2.0 | 7.0 | 0.00 | 0.00 | 0.00 | 32 | 1016.3 |
| 20260506174404 | 73 | 131 | 2.0 | 7.0 | 0.00 | 0.00 | 0.00 | 31 | 1016.1 |
| 20260506173403 | 73 | 9 | 2.0 | 6.0 | 0.00 | 0.00 | 0.00 | 33 | 1016.2 |
| 20260506172903 | 73 | 277 | 2.0 | 3.0 | 0.00 | 0.00 | 0.00 | 33 | 1016.2 |
| 20260506171904 | 73 | 232 | 1.0 | 6.0 | 0.00 | 0.00 | 0.00 | 33 | 1016.2 |
| 20260506171403 | 72 | 235 | 1.0 | 5.0 | 0.00 | 0.00 | 0.00 | 33 | 1016.2 |
| 20260506170903 | 72 | 304 | 2.0 | 3.0 | 0.00 | 0.00 | 0.00 | 34 | 1016.3 |
| 20260506170404 | 71 | 79 | 1.0 | 6.0 | 0.00 | 0.00 | 0.00 | 34 | 1016.3 |
| 20260506165403 | 72 | 225 | 2.0 | 3.0 | 0.00 | 0.00 | 0.00 | 36 | 1016.3 |
| 20260506164903 | 71 | 281 | 1.0 | 3.0 | 0.00 | 0.00 | 0.00 | 35 | 1016.2 |
| 20260506164403 | 69 | 9 | 0.0 | 5.0 | 0.00 | 0.00 | 0.00 | 37 | 1016.2 |
| 20260506163903 | 69 | 235 | 1.0 | 5.0 | 0.00 | 0.00 | 0.00 | 38 | 1016.2 |
| 20260506162903 | 70 | 32 | 1.0 | 3.0 | 0.00 | 0.00 | 0.00 | 35 | 1016.2 |
| 20260506162403 | 70 | 307 | 2.0 | 3.0 | 0.00 | 0.00 | 0.00 | 37 | 1016.2 |
| 20260506161903 | 69 | 35 | 1.0 | 3.0 | 0.00 | 0.00 | 0.00 | 38 | 1016.1 |
| 20260506161403 | 68 | 341 | 1.0 | 3.0 | 0.00 | 0.00 | 0.00 | 39 | 1016.1 |
| 20260506160903 | 68 | 9 | 1.0 | 3.0 | 0.00 | 0.00 | 0.00 | 39 | 1016.1 |
| 20260506160403 | 68 | 91 | 2.0 | 3.0 | 0.00 | 0.00 | 0.00 | 40 | 1016.1 |
| 20260506155903 | 67 | 79 | 1.0 | 5.0 | 0.00 | 0.00 | 0.00 | 41 | 1016.1 |
| 20260506155403 | 67 | 209 | 1.0 | 5.0 | 0.00 | 0.00 | 0.00 | 42 | 1016.0 |
| 20260506154903 | 67 | 71 | 2.0 | 3.0 | 0.00 | 0.00 | 0.00 | 42 | 1016.0 |
| 20260506154404 | 66 | 274 | 0.0 | 3.0 | 0.00 | 0.00 | 0.00 | 43 | 1015.9 |
| 20260506153904 | 66 | 31 | 2.0 | 3.0 | 0.00 | 0.00 | 0.00 | 43 | 1016.0 |
| 20260506153403 | 65 | 191 | 1.0 | 3.0 | 0.00 | 0.00 | 0.00 | 45 | 1016.1 |
| 20260506152903 | 65 | 56 | 2.0 | 3.0 | 0.00 | 0.00 | 0.00 | 49 | 1016.1 |
| 20260506151404 | 64 | 237 | 1.0 | 3.0 | 0.00 | 0.00 | 0.00 | 48 | 1016.1 |
| 20260506150903 | 63 | 131 | 1.0 | 3.0 | 0.00 | 0.00 | 0.00 | 49 | 1016.1 |
| 20260506150403 | 63 | 235 | 1.0 | 3.0 | 0.00 | 0.00 | 0.00 | 50 | 1016.1 |
| 20260506145903 | 63 | 107 | 0.0 | 2.0 | 0.00 | 0.00 | 0.00 | 50 | 1016.1 |
| 20260506144903 | 62 | 112 | 1.0 | 3.0 | 0.00 | 0.00 | 0.00 | 52 | 1016.0 |
| 20260506144403 | 62 | 142 | 1.0 | 3.0 | 0.00 | 0.00 | 0.00 | 52 | 1016.0 |
| 20260506143904 | 61 | 106 | 1.0 | 3.0 | 0.00 | 0.00 | 0.00 | 52 | 1016.0 |
| 20260506143403 | 61 | 131 | 1.0 | 3.0 | 0.00 | 0.00 | 0.00 | 52 | 1016.0 |
| 20260506142904 | 61 | 110 | 1.0 | 3.0 | 0.00 | 0.00 | 0.00 | 53 | 1016.0 |
| 20260506142403 | 60 | 151 | 1.0 | 3.0 | 0.00 | 0.00 | 0.00 | 53 | 1016.1 |
| 20260506141904 | 59 | 79 | 1.0 | 3.0 | 0.00 | 0.00 | 0.00 | 54 | 1016.0 |
| 20260506141403 | 59 | 127 | 1.0 | 3.0 | 0.00 | 0.00 | 0.00 | 55 | 1016.1 |
| 20260506140903 | 58 | 104 | 2.0 | 3.0 | 0.00 | 0.00 | 0.00 | 56 | 1016.0 |
| 20260506140403 | 58 | 105 | 1.0 | 3.0 | 0.00 | 0.00 | 0.00 | 57 | 1015.9 |
| 20260506135903 | 58 | 164 | 1.0 | 2.0 | 0.00 | 0.00 | 0.00 | 58 | 1015.9 |
| 20260506135403 | 58 | 107 | 1.0 | 3.0 | 0.00 | 0.00 | 0.00 | 58 | 1015.9 |
| 20260506134903 | 57 | 117 | 1.0 | 3.0 | 0.00 | 0.00 | 0.00 | 59 | 1015.9 |
| 20260506134403 | 57 | 78 | 0.0 | 1.0 | 0.00 | 0.00 | 0.00 | 62 | 1015.9 |
| 20260506133903 | 56 | 76 | 0.0 | 0.0 | 0.00 | 0.00 | 0.00 | 65 | 1015.8 |
| 20260506133403 | 55 | 75 | 0.0 | 0.0 | 0.00 | 0.00 | 0.00 | 66 | 1015.8 |
| 20260506132903 | 55 | 75 | 0.0 | 0.0 | 0.00 | 0.00 | 0.00 | 68 | 1015.8 |
| 20260506132405 | 54 | 75 | 0.0 | 0.0 | 0.00 | 0.00 | 0.00 | 68 | 1015.6 |
| 20260506131403 | 53 | 120 | 0.0 | 0.0 | 0.00 | 0.00 | 0.00 | 70 | 1015.4 |
| 20260506130903 | 52 | 125 | 0.0 | 1.0 | 0.00 | 0.00 | 0.00 | 72 | 1015.4 |
| 20260506130404 | 52 | 141 | 0.0 | 1.0 | 0.00 | 0.00 | 0.00 | 72 | 1015.2 |
| 20260506125903 | 52 | 199 | 0.0 | 1.0 | 0.00 | 0.00 | 0.00 | 73 | 1015.4 |
| 20260506125403 | 52 | 217 | 0.0 | 1.0 | 0.00 | 0.00 | 0.00 | 73 | 1015.4 |
| 20260506124903 | 52 | 217 | 0.0 | 0.0 | 0.00 | 0.00 | 0.00 | 73 | 1015.3 |
| 20260506124404 | 52 | 217 | 0.0 | 1.0 | 0.00 | 0.00 | 0.00 | 72 | 1015.4 |
| 20260506123403 | 53 | 217 | 0.0 | 1.0 | 0.00 | 0.00 | 0.00 | 72 | 1015.2 |
| 20260506122904 | 53 | 217 | 0.0 | 1.0 | 0.00 | 0.00 | 0.00 | 72 | 1015.2 |
| 20260506122403 | 53 | 217 | 0.0 | 0.0 | 0.00 | 0.00 | 0.00 | 72 | 1015.1 |
| 20260506121903 | 53 | 217 | 0.0 | 0.0 | 0.00 | 0.00 | 0.00 | 71 | 1015.1 |
| 20260506121403 | 53 | 217 | 0.0 | 0.0 | 0.00 | 0.00 | 0.00 | 71 | 1015.1 |
| 20260506120903 | 53 | 217 | 0.0 | 2.0 | 0.00 | 0.00 | 0.00 | 70 | 1015.1 |
| 20260506120403 | 54 | 217 | 1.0 | 2.0 | 0.00 | 0.00 | 0.00 | 69 | 1015.0 |
| 20260506115903 | 54 | 355 | 0.0 | 0.0 | 0.00 | 0.00 | 0.00 | 68 | 1014.9 |
| 20260506115403 | 55 | 355 | 0.0 | 1.0 | 0.00 | 0.00 | 0.00 | 67 | 1014.9 |
| 20260506114903 | 55 | 355 | 0.0 | 1.0 | 0.00 | 0.00 | 0.00 | 66 | 1014.8 |
| 20260506114403 | 55 | 355 | 0.0 | 3.0 | 0.00 | 0.00 | 0.00 | 66 | 1014.8 |
| 20260506113903 | 55 | 355 | 0.0 | 3.0 | 0.00 | 0.00 | 0.00 | 66 | 1014.8 |
| 20260506112903 | 55 | 5 | 0.0 | 2.0 | 0.00 | 0.00 | 0.00 | 66 | 1014.8 |
| 20260506112403 | 55 | 5 | 0.0 | 2.0 | 0.00 | 0.00 | 0.00 | 66 | 1014.7 |
| 20260506111904 | 55 | 5 | 0.0 | 1.0 | 0.00 | 0.00 | 0.00 | 66 | 1014.7 |
| 20260506111404 | 55 | 5 | 0.0 | 2.0 | 0.00 | 0.00 | 0.00 | 66 | 1014.7 |
| 20260506110904 | 56 | 5 | 0.0 | 2.0 | 0.00 | 0.01 | 0.00 | 65 | 1014.6 |
| 20260506105904 | 56 | 5 | 1.0 | 2.0 | 0.00 | 0.01 | 0.00 | 63 | 1014.5 |
| 20260506105404 | 57 | 5 | 0.0 | 2.0 | 0.00 | 0.01 | 0.00 | 63 | 1014.5 |
| 20260506104903 | 57 | 348 | 0.0 | 3.0 | 0.00 | 0.01 | 0.00 | 62 | 1014.5 |
| 20260506104403 | 57 | 338 | 1.0 | 3.0 | 0.00 | 0.01 | 0.00 | 62 | 1014.4 |
| 20260506103903 | 57 | 333 | 1.0 | 3.0 | 0.00 | 0.02 | 0.00 | 62 | 1014.4 |
| 20260506103403 | 56 | 349 | 1.0 | 2.0 | 0.00 | 0.02 | 0.00 | 62 | 1014.3 |
| 20260506102905 | 56 | 354 | 1.0 | 2.0 | 0.00 | 0.02 | 0.00 | 62 | 1014.3 |
| 20260506102403 | 56 | 5 | 1.0 | 2.0 | 0.00 | 0.02 | 0.00 | 62 | 1014.3 |
| 20260506101903 | 56 | 6 | 0.0 | 1.0 | 0.00 | 0.02 | 0.00 | 62 | 1014.2 |